2018-099D (43761 NORAD) Tracking and Keplerian Element Data

This shows tracking and keplerian element data for the satellite.

Feedback or suggestion? Click here.




ElementValue
Catalog43761
Name2018-099D
Epoch Orbit87
Epoch Day343.6415554
Epoch Year2018
RAAN52.7454
Inclination97.771
Eccentricity0.0013238
Argument of Perigee241.496
Mean Anonmoly118.4928
Mean Motion14.94949702
Decay Rate-2.57E-06
L11 43761U 18099D 18343.64155540 -.00000257 00000-0 -18140-4 0 9991
L22 43761 97.7710 52.7454 0013238 241.4960 118.4928 14.94949702 871

Live tracking and technical data element details for 2018-099D (NORAD 43761). 2018-099D can be tracked NOW for your location showing map with azimuth and elevation plus other details from your city location.

Track the satellite on the map from your city or location and see movement details for azimuth, elevation, latitude, longitude, range, height, and movement on the map or in text.







IsCatalogInMostPopularTable: catalog: 43761, numindb: 2
Update: records affected: 1



GetName: 43761 2018-099D

Hit Count: updated at: Tue, 11 Dec 2018 01:56:30 GMT